Simultaneous Nadir Overpasses (SNOs) Predictions

Prediction of SNOs between METOP-B and TERRA Satellite Orbit:

Table of predicted SNOs for the next 14.0 days since TLE Epoch: 10/19/2019
Index Date (METOP-B) Time (METOP-B) Lat,Lon (METOP-B) SZA (METOP-B ) Date (TERRA) Time (TERRA) Lat,Lon (TERRA) SZA (TERRA ) Distance(km) Time Diff (sec)
1 10/21/2019 04:30:20 81.27, 158.90 94.92 10/21/2019 04:30:43 81.27, 158.83 94.92 1.28 23
2 10/21/2019 05:21:01 -81.27, -33.67 85.07 10/21/2019 05:20:10 -81.27, -33.61 85.09 1.07 51
3 10/24/2019 00:04:45 81.27,-135.00 95.88 10/24/2019 00:04:59 81.27,-134.87 95.90 2.22 14
4 10/24/2019 00:55:25 -81.27, 32.84 84.05 10/24/2019 00:54:26 -81.26, 32.73 84.10 2.03 59
5 10/26/2019 19:39:09 81.27, -68.50 96.86 10/26/2019 19:39:15 81.27, -68.41 96.88 1.66 6
6 10/26/2019 20:29:49 -81.28, 99.34 83.07 10/26/2019 20:28:42 -81.27, 99.23 83.12 2.05 67
7 10/29/2019 14:22:53 -81.26,-169.84 82.26 10/29/2019 14:24:05 -81.26,-169.82 82.23 0.55 72
8 10/29/2019 15:13:31 81.28, -1.62 97.87 10/29/2019 15:13:30 81.28, -1.79 97.85 2.96 1
9 10/29/2019 16:03:52 -81.31, 173.68 81.14 10/29/2019 16:02:38 -81.62, 173.31 81.06 34.55 74
10 11/01/2019 09:57:17 -81.26,-103.35 81.33 11/01/2019 09:58:22 -81.26,-103.41 81.31 1.29 65




NCC Satellite Simultaneous Nadir Overpasses (SNOs) Prediction Service
